Temperature
8 8 8 8 9 10 10 9 10 11 12 13 12 12 13 15 15 15 16 17 17 17 17 17 17 17 17 17 17 17 16 16 16 16 15 15 15 15 15 15 15 15 15 15
7 8 9 10 10 11 11 10 10 12 12 13 12 12 13 14 14 15 16 16 17 17 16 16 16 17 17 17 17 16 16 16 16 16 15 15 15 15 15 15 15 15 15 15
7 8 10 10 10 10 10 10 10 10 12 12 12 12 12 12 14 15 16 16 16 16 16 16 16 16 16 16 16 16 16 16 16 15 15 15 15 15 15 15 15 15 14 14
8 9 10 10 10 10 10 11 11 10 10 9 11 9 10 11 12 12 14 15 15 15 15 15 15 15 15 15 15 15 15 15 15 15 15 15 15 15 15 14 14 14 14 14
7 9 9 9 10 10 11 11 10 10 9 9 10 9 9 10 10 11 11 13 14 14 14 14 14 14 14 14 14 14 14 14 14 14 14 14 14 14 14 14 14 14 14 14
7 8 9 9 10 11 10 10 9 8 8 9 8 8 8 9 10 11 10 12 13 13 13 13 12 12 12 13 13 13 13 13 13 13 13 13 13 13 13 13 13 13 13 13
7 8 8 9 9 10 10 8 8 8 8 7 8 8 9 10 10 10 10 11 12 12 12 12 12 11 11 11 12 12 12 12 12 12 12 12 12 12 12 12 12 12 12 12
7 7 7 8 9 9 9 8 7 8 7 7 8 8 9 9 10 11 11 11 11 12 12 11 11 11 11 11 11 11 10 10 11 11 10 10 10 10 10 10 10 10 11 11
7 7 7 7 8 9 8 8 8 7 7 7 7 8 8 9 9 9 9 10 11 11 11 11 11 10 10 10 10 10 10 9 9 9 9 9 9 9 9 9 9 9 9 9
7 7 7 7 8 8 8 8 7 7 7 7 8 8 8 9 8 8 8 9 11 11 11 11 10 10 10 9 9 9 9 8 8 8 8 8 8 8 8 8 8 8 8 8
7 7 7 7 8 8 8 8 8 7 7 7 8 8 9 8 8 8 8 10 11 11 11 10 10 9 9 8 8 8 7 7 7 7 7 7 7 7 7 7 7 7 8 8
7 7 7 7 7 8 8 8 7 7 7 6 6 7 9 8 8 9 9 10 11 11 10 10 9 9 8 8 7 7 7 6 6 6 6 6 6 6 6 6 7 7 7 7
8 6 6 6 7 7 7 7 8 7 6 5 5 8 9 8 8 10 10 11 11 10 10 9 9 8 8 7 7 6 6 6 6 6 6 6 6 6 6 6 6 6 6 6
8 6 6 6 7 6 6 7 7 7 6 6 6 8 9 9 8 9 10 11 11 10 10 9 8 8 7 7 6 5 5 5 5 5 5 5 5 5 5 5 5 5 5 5
7 6 6 7 7 6 6 7 7 6 6 6 7 8 9 9 9 9 10 10 10 10 9 9 8 8 7 6 5 5 4 4 4 4 4 4 4 4 4 4 4 4 4 4
6 6 6 6 7 7 7 6 6 7 7 7 7 8 9 10 10 10 10 10 10 10 9 9 8 7 6 5 5 4 4 4 4 4 4 4 3 3 3 3 3 3 3 3
5 5 5 5 6 6 5 6 7 6 7 7 7 8 9 9 8 9 10 10 10 10 9 9 8 7 6 5 4 4 3 3 3 3 3 3 3 2 2 2 2 2 2 2
5 5 4 4 5 5 6 7 7 7 7 7 8 8 8 9 10 11 11 11 10 10 9 8 7 6 5 5 4 3 3 3 2 2 2 2 2 1 1 1 1 1 1 1
6 6 5 4 4 5 7 8 7 6 6 7 7 8 9 9 9 9 10 10 10 10 9 8 7 6 5 4 4 3 3 2 2 2 2 1 1 1 1 1 1 0 1 1
7 6 5 5 5 6 7 9 9 8 7 8 8 7 8 8 7 7 10 9 9 9 8 7 7 6 5 4 4 3 3 2 2 2 2 1 1 1 1 1 0 0 0 0
6 6 5 5 5 5 7 8 9 7 7 8 8 8 8 8 8 9 9 9 8 8 8 7 6 6 5 4 4 3 3 3 3 2 2 1 1 1 1 0 0 0 0 0
5 5 5 5 5 5 7 8 7 7 8 8 8 9 9 9 9 9 9 8 8 7 7 7 6 6 5 4 4 4 3 3 3 2 2 2 1 1 1 0 0 0 -0 -0
5 5 5 5 6 7 8 8 9 9 9 9 9 9 9 9 9 8 8 8 7 7 6 6 6 5 5 5 4 4 4 3 3 2 2 2 1 1 1 0 0 -0 -0 -0
5 5 5 5 6 7 8 9 9 9 9 9 9 9 9 8 8 8 7 7 7 7 6 6 5 5 5 5 5 4 3 3 3 2 2 2 1 1 1 0 0 -0 -0 -1
5 5 5 5 6 7 8 9 9 9 9 9 8 8 8 8 8 7 7 7 7 6 6 6 6 5 5 5 4 4 4 3 3 2 2 2 1 1 1 0 0 -0 -1 -1
5 5 5 5 7 6 8 9 8 8 8 8 8 8 7 7 7 7 7 6 6 6 6 6 5 5 5 5 4 4 4 3 3 2 2 2 1 1 1 0 0 -0 -1 -1
Wind_Speed
7 6 10 13 8 7 9 8 8 6 6 8 9 8 8 7 5 7 7 7 6 4 1 2 4 5 6 6 6 5 4 2 1 1 2 3 5 5 5 6 10 11 12 13
6 8 8 9 7 8 9 9 8 4 4 8 8 10 8 9 7 8 8 8 8 6 4 4 5 6 7 6 6 6 5 3 2 1 1 2 3 4 5 4 7 10 10 11
6 6 9 10 9 7 7 9 9 6 3 2 4 6 9 9 6 6 7 7 8 9 9 7 6 7 7 7 6 5 5 4 3 1 1 1 1 1 2 3 3 5 8 10
3 5 10 11 9 7 5 7 9 8 7 4 6 5 8 9 10 11 10 8 8 8 9 8 7 7 6 5 5 6 5 5 4 3 3 2 0 2 3 3 4 5 6 8
3 7 11 11 8 7 4 4 7 7 7 3 3 4 8 5 11 14 12 10 9 9 10 9 8 7 6 5 5 5 5 6 5 5 4 3 1 2 3 3 4 4 4 6
3 3 4 5 5 6 5 8 8 6 4 4 7 6 8 7 11 9 10 10 10 10 9 8 7 7 5 5 5 5 6 6 6 6 5 4 3 3 3 4 4 4 4 4
5 4 3 3 6 3 6 8 4 2 3 7 5 6 10 9 9 11 12 12 11 10 9 8 8 6 5 5 5 5 6 6 6 7 6 5 4 3 3 4 4 4 3 3
6 5 1 2 4 6 6 8 7 6 7 4 4 9 9 7 7 7 11 12 11 10 8 8 8 7 6 5 5 5 6 5 6 6 6 5 5 3 3 3 3 3 3 4
6 4 2 2 2 6 6 4 5 5 3 3 6 7 8 2 2 7 11 11 10 9 9 8 7 6 6 5 5 5 5 5 5 5 5 5 6 5 5 5 5 4 4 5
6 6 2 1 3 3 3 6 5 5 6 5 6 6 6 6 7 9 11 11 9 8 8 8 7 6 5 5 5 5 5 5 4 5 5 5 6 6 6 5 6 6 6 6
4 6 5 3 6 7 4 4 5 5 4 5 5 7 6 10 12 13 11 10 10 9 9 8 7 6 6 5 5 5 5 5 5 5 5 6 6 6 7 6 7 6 7 8
4 5 4 1 1 1 4 6 7 6 5 5 4 7 6 7 9 10 9 8 8 9 8 8 7 6 6 5 5 4 4 4 4 4 5 6 6 7 7 7 7 7 8 8
6 6 6 2 1 3 4 5 6 4 4 5 5 7 5 2 7 9 9 9 8 8 8 7 6 6 6 5 5 4 4 4 4 5 5 6 6 7 7 7 7 7 7 8
6 5 6 9 6 7 6 8 9 7 6 6 8 7 4 3 7 8 9 9 9 9 8 8 7 6 5 5 5 4 4 4 4 5 6 6 6 6 6 6 7 7 7 8
5 4 3 3 2 6 6 9 12 12 10 9 8 8 9 9 10 10 9 9 9 8 8 9 8 6 6 5 4 4 4 4 4 5 5 5 5 6 6 7 7 7 8 9
3 4 2 1 1 3 4 8 12 13 11 10 7 8 7 7 6 7 9 10 10 10 9 9 8 8 7 6 5 5 4 4 4 5 5 5 5 6 6 6 7 7 8 8
3 5 3 2 1 2 7 11 14 9 9 11 14 11 4 6 9 11 10 10 11 10 9 10 9 8 8 7 6 6 5 4 5 4 4 4 5 5 6 6 7 7 7 7
6 5 4 2 2 6 8 4 8 11 11 11 8 7 8 9 8 7 8 10 10 10 10 9 8 8 7 6 6 6 5 5 5 4 4 4 5 5 5 6 6 6 5 6
6 6 4 3 3 8 8 4 6 7 8 11 13 9 7 5 4 2 4 6 8 8 7 8 8 7 7 7 7 7 6 5 5 5 4 4 5 5 5 5 5 4 4 5
4 5 4 3 3 5 6 3 3 4 6 6 11 10 8 9 6 6 5 5 6 7 7 8 8 7 8 8 8 7 7 6 5 5 5 5 4 5 5 4 4 3 4 4
4 3 4 4 4 7 7 2 4 3 6 5 5 8 9 9 6 4 7 5 6 6 7 8 9 8 8 8 8 8 7 6 6 6 5 5 5 4 4 4 3 3 3 3
8 6 6 5 6 8 4 5 5 6 2 2 3 4 6 5 5 6 6 6 7 7 7 8 8 7 7 9 9 8 8 7 7 6 6 5 5 4 4 4 3 3 3 3
8 9 6 8 9 6 4 7 5 4 3 2 3 4 6 6 5 5 5 6 7 7 8 7 8 8 8 9 9 10 8 8 8 7 6 5 5 4 4 4 4 3 3 3
4 4 4 4 7 6 5 4 3 3 4 3 4 4 5 5 5 5 5 6 7 7 8 8 9 9 9 9 10 9 9 9 9 8 7 6 6 5 4 3 3 3 4 3
4 4 4 5 6 4 4 5 4 2 3 4 3 3 3 4 4 5 5 6 7 7 8 9 10 11 11 10 10 9 10 10 9 8 7 7 6 6 5 4 4 4 4 5
4 5 5 6 6 5 5 4 3 4 3 4 4 2 2 1 2 3 4 5 6 7 8 9 10 10 10 10 11 10 11 11 10 8 8 6 6 5 5 4 2 5 5 5
Wind_Direction
167 169 188 187 170 138 135 141 161 185 186 171 197 211 231 247 231 224 217 203 191 186 159 96 87 96 97 81 82 84 90 58 101 166 201 220 234 239 240 236 235 228 225 223
149 192 180 152 148 135 144 150 169 192 195 180 205 228 237 249 232 218 210 201 185 158 127 92 77 71 77 80 75 70 64 57 64 126 192 212 231 242 243 251 248 242 238 232
157 168 160 160 166 153 168 170 175 174 126 140 158 249 242 250 244 236 222 205 184 166 151 129 105 91 81 71 65 62 52 51 48 41 84 15 4 328 304 273 265 262 257 250
135 153 161 168 178 154 185 193 174 156 140 195 174 228 257 233 239 235 225 201 181 160 146 139 127 110 96 82 64 52 42 40 35 42 63 84 139 257 264 272 275 287 278 267
157 163 164 174 176 155 189 168 148 149 140 137 175 199 272 238 230 232 219 200 181 165 151 145 136 124 107 87 66 50 45 38 29 36 45 55 27 274 290 303 302 299 293 283
99 95 128 154 145 156 133 87 68 64 95 203 204 189 264 229 219 221 205 189 175 163 150 139 128 116 97 74 59 48 47 37 28 34 34 37 13 340 335 330 320 312 305 302
85 63 27 114 124 131 137 117 103 127 203 238 197 201 246 242 229 211 191 176 170 160 148 140 132 119 104 82 62 52 55 40 26 29 25 20 12 2 341 320 315 320 320 319
133 149 42 52 141 160 170 145 156 175 199 249 206 225 250 269 261 197 163 158 157 155 151 147 143 131 116 98 76 64 61 45 29 25 16 14 14 9 354 346 345 344 334 322
141 144 66 48 70 130 141 155 153 133 156 206 242 265 299 335 102 139 146 152 159 158 155 150 141 131 122 106 87 80 73 53 31 20 16 18 16 19 15 12 14 7 355 349
126 129 138 102 85 35 137 142 117 138 168 226 258 248 238 222 193 170 164 164 163 158 153 147 142 137 127 115 99 82 77 65 38 28 27 36 25 24 20 24 21 13 6 7
109 126 141 156 188 177 153 161 162 166 184 188 239 260 227 211 195 182 177 169 164 163 161 157 152 143 131 118 105 90 74 61 44 37 39 40 31 28 31 32 24 18 19 19
128 117 134 151 8 177 192 189 167 176 210 197 210 267 290 235 192 172 171 172 169 165 162 158 153 144 136 125 111 96 79 63 48 48 53 47 39 36 36 31 26 28 30 27
136 123 128 136 267 217 218 205 193 162 149 182 196 264 326 99 153 165 169 171 166 162 159 156 154 154 148 136 121 103 82 65 58 65 64 55 44 42 38 34 32 35 37 36
126 133 173 189 204 179 194 202 191 178 197 212 219 247 277 183 168 174 175 174 172 171 168 166 166 161 152 141 129 114 90 71 75 75 72 63 52 49 46 44 43 42 44 44
111 147 190 223 192 162 193 198 196 204 206 203 223 221 226 209 191 185 181 176 175 179 180 178 173 167 157 146 136 123 104 84 85 83 77 70 65 60 57 53 52 51 51 51
95 129 115 306 233 201 236 223 210 215 216 223 237 247 238 213 189 183 184 182 188 192 190 182 174 169 167 162 152 136 118 104 98 92 84 77 74 68 64 62 60 59 56 53
126 127 129 251 295 11 266 227 212 211 209 203 224 232 208 186 192 192 192 192 196 196 189 182 177 174 170 166 154 145 134 121 110 103 93 86 85 79 72 72 69 64 62 60
138 130 137 157 104 240 246 237 204 217 230 212 218 213 201 205 202 198 192 192 199 192 183 177 168 163 159 152 145 139 133 128 124 115 106 103 102 94 87 81 76 69 65 63
147 143 147 163 228 275 284 249 185 196 250 221 217 215 204 182 133 242 219 197 194 182 169 164 159 154 152 153 149 142 139 138 135 130 123 119 116 111 104 96 91 84 81 73
130 132 150 183 226 253 267 291 173 139 268 249 207 201 184 154 180 231 194 159 150 144 143 147 145 144 154 160 153 149 152 152 151 145 136 129 126 126 122 116 107 100 98 92
159 168 186 201 241 267 261 253 113 169 258 305 197 182 171 182 197 180 145 139 141 139 143 147 150 158 166 162 158 160 162 167 159 150 145 140 141 140 136 130 126 126 118 106
174 186 193 186 219 255 251 149 184 222 276 26 101 135 143 145 126 132 146 150 154 153 154 158 162 168 169 167 165 170 178 171 159 157 158 158 160 160 149 145 145 145 143 135
190 191 189 196 218 242 221 206 225 184 165 138 115 121 128 130 145 157 168 172 176 176 175 172 172 174 177 179 177 181 183 171 167 166 170 171 169 164 159 164 167 165 169 175
248 188 183 239 259 254 243 229 222 187 174 155 140 137 140 151 165 178 185 188 189 189 187 181 179 187 193 191 189 187 178 175 174 177 180 178 174 170 167 168 171 171 181 189
240 183 201 244 269 285 259 221 208 175 136 126 118 131 148 158 176 189 199 201 200 199 194 190 195 201 201 193 195 188 180 178 182 185 185 183 181 175 175 178 190 189 203 196
219 192 192 229 234 218 245 242 186 163 160 148 138 123 91 136 205 214 221 219 210 205 197 199 204 206 202 197 199 192 184 182 183 188 190 187 183 182 179 178 198 222 212 214
Height
1481 1485 1487 1487 1490 1493 1498 1504 1507 1507 1504 1507 1510 1512 1511 1509 1511 1511 1511 1513 1514 1516 1518 1520 1521 1523 1525 1526 1528 1529 1531 1532 1533 1534 1535 1536 1537 1538 1539 1540 1541 1541 1542 1542
1482 1484 1484 1487 1490 1492 1496 1503 1506 1505 1503 1507 1511 1511 1508 1507 1508 1508 1508 1509 1511 1513 1515 1516 1518 1520 1522 1523 1525 1526 1527 1528 1529 1530 1531 1532 1532 1533 1534 1535 1536 1536 1537 1537
1479 1482 1482 1486 1490 1495 1498 1502 1505 1506 1506 1507 1511 1513 1509 1505 1504 1505 1505 1506 1507 1509 1511 1513 1515 1517 1519 1520 1522 1523 1524 1524 1525 1526 1526 1527 1527 1528 1529 1529 1529 1530 1530 1531
1480 1480 1482 1486 1491 1494 1499 1497 1500 1505 1511 1517 1514 1522 1510 1504 1503 1501 1501 1502 1504 1506 1508 1510 1512 1514 1516 1517 1518 1519 1519 1520 1520 1521 1521 1522 1522 1522 1523 1523 1523 1524 1524 1524
1480 1480 1482 1487 1489 1492 1495 1494 1499 1505 1511 1516 1515 1520 1511 1502 1501 1497 1496 1498 1500 1503 1505 1508 1510 1512 1513 1514 1515 1515 1515 1516 1516 1516 1516 1516 1516 1516 1517 1517 1517 1517 1517 1517
1480 1481 1483 1486 1488 1491 1494 1498 1504 1509 1514 1521 1517 1521 1512 1501 1494 1490 1491 1494 1497 1500 1503 1505 1507 1509 1510 1511 1511 1512 1512 1512 1512 1512 1512 1512 1512 1511 1511 1511 1511 1510 1510 1510
1482 1484 1485 1486 1490 1493 1494 1504 1516 1518 1521 1521 1513 1514 1502 1489 1485 1484 1485 1489 1493 1497 1500 1503 1505 1507 1508 1509 1509 1509 1509 1509 1509 1508 1508 1507 1507 1506 1506 1505 1505 1504 1504 1504
1483 1488 1488 1488 1488 1492 1495 1500 1512 1518 1521 1520 1511 1509 1494 1483 1479 1478 1481 1486 1491 1495 1498 1501 1503 1505 1506 1506 1507 1506 1506 1506 1505 1505 1504 1503 1503 1502 1501 1500 1500 1499 1498 1498
1483 1488 1490 1489 1489 1490 1496 1499 1501 1510 1514 1516 1511 1500 1490 1481 1479 1479 1481 1485 1489 1493 1496 1499 1501 1503 1504 1504 1504 1504 1503 1502 1502 1501 1500 1500 1499 1498 1497 1496 1496 1495 1494 1494
1480 1487 1490 1490 1490 1492 1493 1496 1504 1510 1513 1513 1504 1498 1492 1483 1482 1481 1482 1484 1487 1491 1495 1497 1499 1501 1502 1502 1501 1501 1500 1499 1498 1497 1497 1496 1495 1494 1493 1493 1492 1491 1491 1490
1478 1485 1491 1491 1491 1491 1495 1497 1498 1504 1507 1509 1505 1496 1479 1477 1476 1478 1479 1482 1486 1490 1493 1496 1497 1499 1499 1499 1498 1497 1497 1496 1495 1494 1493 1492 1492 1491 1490 1490 1489 1488 1487 1486
1478 1485 1489 1492 1491 1490 1492 1492 1496 1502 1504 1505 1508 1496 1473 1472 1473 1476 1479 1483 1486 1489 1492 1494 1495 1496 1496 1495 1495 1494 1493 1493 1492 1491 1490 1490 1489 1488 1488 1487 1486 1485 1484 1483
1477 1485 1491 1493 1495 1493 1491 1489 1490 1493 1499 1505 1507 1492 1473 1471 1473 1476 1479 1482 1485 1488 1490 1492 1492 1493 1493 1492 1492 1491 1490 1490 1489 1488 1488 1487 1487 1486 1485 1484 1483 1483 1482 1481
1474 1483 1488 1487 1485 1485 1488 1487 1487 1492 1496 1498 1496 1485 1476 1474 1474 1476 1478 1481 1483 1486 1487 1489 1489 1490 1490 1489 1489 1488 1488 1487 1487 1486 1486 1485 1484 1483 1483 1482 1481 1480 1479 1478
1474 1481 1482 1481 1479 1482 1483 1482 1483 1486 1486 1489 1483 1480 1474 1472 1472 1474 1476 1479 1481 1483 1485 1486 1486 1487 1487 1486 1486 1486 1485 1485 1484 1484 1483 1483 1482 1482 1481 1480 1480 1479 1478 1477
1475 1480 1482 1482 1479 1479 1480 1478 1479 1479 1479 1479 1477 1475 1469 1469 1471 1472 1474 1476 1478 1480 1481 1482 1483 1483 1483 1484 1483 1483 1483 1482 1482 1482 1481 1481 1481 1480 1479 1479 1478 1478 1477 1476
1477 1481 1486 1488 1481 1480 1482 1472 1471 1472 1469 1471 1472 1468 1466 1467 1468 1469 1471 1473 1474 1476 1478 1479 1480 1480 1481 1481 1481 1481 1480 1480 1480 1480 1480 1480 1479 1479 1479 1478 1478 1478 1477 1476
1476 1481 1487 1488 1486 1489 1470 1461 1462 1463 1462 1462 1461 1461 1462 1463 1464 1466 1468 1470 1471 1473 1474 1476 1477 1477 1478 1478 1479 1479 1479 1479 1479 1479 1479 1479 1479 1479 1479 1479 1478 1478 1478 1477
1471 1477 1484 1488 1488 1480 1466 1458 1459 1462 1460 1455 1456 1457 1459 1461 1463 1465 1466 1468 1469 1470 1472 1473 1474 1475 1476 1476 1477 1477 1477 1478 1478 1478 1478 1478 1479 1479 1479 1479 1479 1479 1478 1478
1470 1473 1480 1482 1482 1476 1463 1455 1454 1458 1458 1450 1450 1452 1456 1459 1465 1464 1463 1465 1466 1468 1469 1470 1471 1473 1473 1474 1475 1476 1476 1477 1477 1477 1478 1478 1479 1479 1480 1480 1480 1479 1479 1478
1471 1474 1478 1480 1478 1472 1459 1455 1456 1464 1458 1449 1447 1449 1452 1455 1458 1460 1461 1462 1464 1466 1467 1468 1469 1471 1472 1473 1473 1474 1475 1476 1477 1477 1478 1478 1479 1479 1480 1480 1480 1479 1479 1479
1470 1473 1475 1475 1476 1472 1455 1455 1457 1455 1451 1449 1448 1449 1452 1454 1456 1458 1460 1461 1463 1464 1465 1466 1468 1469 1470 1471 1472 1473 1474 1475 1476 1477 1477 1478 1479 1479 1479 1479 1479 1479 1479 1478
1464 1464 1465 1466 1464 1455 1452 1452 1451 1451 1451 1451 1450 1451 1453 1454 1456 1458 1459 1460 1461 1463 1464 1465 1466 1467 1468 1469 1470 1471 1473 1473 1475 1476 1477 1477 1478 1478 1479 1479 1479 1479 1478 1477
1458 1457 1459 1459 1455 1451 1450 1450 1451 1451 1451 1451 1452 1453 1454 1455 1456 1457 1458 1459 1460 1461 1462 1462 1463 1464 1465 1466 1468 1469 1471 1472 1473 1474 1475 1476 1476 1477 1477 1477 1477 1477 1477 1476
1455 1455 1456 1455 1451 1449 1448 1449 1449 1450 1451 1451 1452 1452 1453 1454 1455 1456 1456 1457 1457 1458 1459 1459 1460 1461 1462 1464 1465 1466 1468 1469 1470 1472 1473 1474 1474 1475 1475 1475 1475 1475 1475 1474
1453 1453 1454 1453 1448 1448 1447 1446 1448 1448 1449 1450 1451 1451 1452 1452 1453 1453 1454 1454 1454 1455 1455 1456 1456 1457 1459 1460 1461 1463 1464 1466 1467 1468 1470 1471 1472 1472 1473 1473 1473 1472 1472 1471